Time,TemperatureF,DewpointF,PressureIn,WindDirection,WindDirectionDegrees,WindSpeedMPH,WindSpeedGustMPH,Humidity,HourlyPrecipIn,Conditions,Clouds,dailyrainin,SoftwareType,DateUTC
2013-02-21 00:02:00,22.0,12.0,29.98,WSW,248,3.0,10.0,66,0.00,,,0.00,,2013-02-21 05:02:00,
2013-02-21 00:12:00,22.0,12.0,29.98,WSW,248,3.0,10.0,66,0.00,,,0.00,,2013-02-21 05:12:00,
2013-02-21 00:22:00,23.0,14.0,29.98,WSW,248,2.0,6.0,67,0.00,,,0.00,,2013-02-21 05:22:00,
2013-02-21 00:35:00,23.0,14.0,29.98,WSW,248,2.0,6.0,67,0.00,,,0.00,,2013-02-21 05:35:00,
2013-02-21 00:46:00,23.0,14.0,29.98,WSW,248,2.0,6.0,67,0.00,,,0.00,,2013-02-21 05:46:00,
2013-02-21 01:00:00,23.0,14.0,29.98,WSW,248,2.0,7.0,67,0.00,,,0.00,,2013-02-21 06:00:00,
2013-02-21 01:11:00,23.0,14.0,29.98,WSW,248,3.0,8.0,67,0.00,,,0.00,,2013-02-21 06:11:00,
2013-02-21 01:21:00,23.0,14.0,29.97,WSW,248,3.0,8.0,68,0.00,,,0.00,,2013-02-21 06:21:00,
2013-02-21 01:31:00,23.0,14.0,29.97,WSW,248,3.0,5.0,68,0.00,,,0.00,,2013-02-21 06:31:00,
2013-02-21 01:41:00,23.0,14.0,29.97,WSW,248,3.0,5.0,68,0.00,,,0.00,,2013-02-21 06:41:00,
2013-02-21 01:51:00,23.0,14.0,29.97,WSW,248,3.0,5.0,68,0.00,,,0.00,,2013-02-21 06:51:00,
2013-02-21 02:01:00,23.0,14.0,29.97,WSW,248,3.0,5.0,68,0.00,,,0.00,,2013-02-21 07:01:00,
2013-02-21 02:11:00,23.0,14.0,29.96,WSW,248,3.0,10.0,68,0.00,,,0.00,,2013-02-21 07:11:00,
2013-02-21 02:22:00,23.0,14.0,29.96,WSW,248,3.0,10.0,68,0.00,,,0.00,,2013-02-21 07:22:00,
2013-02-21 02:32:00,23.0,14.0,29.97,WSW,248,2.0,5.0,69,0.00,,,0.00,,2013-02-21 07:32:00,
2013-02-21 02:42:00,23.0,14.0,29.97,WSW,248,2.0,7.0,68,0.00,,,0.00,,2013-02-21 07:42:00,
2013-02-21 02:52:00,23.0,14.0,29.97,WSW,248,2.0,7.0,68,0.00,,,0.00,,2013-02-21 07:52:00,
2013-02-21 03:01:00,23.0,14.0,29.97,WSW,248,3.0,6.0,69,0.00,,,0.00,,2013-02-21 08:01:00,
2013-02-21 03:11:00,23.0,14.0,29.97,WSW,248,2.0,5.0,69,0.00,,,0.00,,2013-02-21 08:11:00,
2013-02-21 03:21:00,23.0,14.0,29.97,WSW,248,2.0,5.0,69,0.00,,,0.00,,2013-02-21 08:21:00,
2013-02-21 03:32:00,23.0,14.0,29.97,WSW,248,2.0,3.0,69,0.00,,,0.00,,2013-02-21 08:32:00,
2013-02-21 03:42:00,23.0,14.0,29.97,WSW,248,2.0,3.0,69,0.00,,,0.00,,2013-02-21 08:42:00,
2013-02-21 03:52:00,23.0,14.0,29.97,WSW,248,2.0,3.0,69,0.00,,,0.00,,2013-02-21 08:52:00,
2013-02-21 04:01:00,23.0,14.0,29.97,WSW,248,2.0,5.0,69,0.00,,,0.00,,2013-02-21 09:01:00,
2013-02-21 04:11:00,23.0,14.0,29.97,WSW,248,2.0,5.0,69,0.00,,,0.00,,2013-02-21 09:11:00,
2013-02-21 04:22:00,23.0,14.0,29.96,WSW,248,3.0,6.0,69,0.00,,,0.00,,2013-02-21 09:22:00,
2013-02-21 04:32:00,23.0,14.0,29.96,WSW,248,3.0,12.0,69,0.00,,,0.00,,2013-02-21 09:32:00,
2013-02-21 04:42:00,23.0,14.0,29.97,WSW,248,3.0,6.0,69,0.00,,,0.00,,2013-02-21 09:42:00,
2013-02-21 04:52:00,23.0,14.0,29.97,WSW,248,3.0,6.0,69,0.00,,,0.00,,2013-02-21 09:52:00,
2013-02-21 05:01:00,23.0,14.0,29.97,WSW,248,3.0,6.0,69,0.00,,,0.00,,2013-02-21 10:01:00,
2013-02-21 05:11:00,23.0,14.0,29.97,WSW,248,3.0,6.0,69,0.00,,,0.00,,2013-02-21 10:11:00,
2013-02-21 05:21:00,23.0,14.0,29.97,WSW,248,3.0,6.0,69,0.00,,,0.00,,2013-02-21 10:21:00,
2013-02-21 05:31:00,23.0,14.0,29.98,WSW,248,3.0,9.0,68,0.00,,,0.00,,2013-02-21 10:31:00,
2013-02-21 05:41:00,23.0,14.0,29.98,WSW,248,3.0,9.0,68,0.00,,,0.00,,2013-02-21 10:41:00,
2013-02-21 05:51:00,23.0,14.0,29.98,WSW,248,5.0,9.0,67,0.00,,,0.00,,2013-02-21 10:51:00,
2013-02-21 06:01:00,23.0,14.0,29.98,WSW,248,3.0,5.0,67,0.00,,,0.00,,2013-02-21 11:01:00,
2013-02-21 06:11:00,23.0,14.0,29.98,WSW,248,3.0,5.0,67,0.00,,,0.00,,2013-02-21 11:11:00,
2013-02-21 06:21:00,23.0,14.0,29.98,WSW,248,2.0,5.0,67,0.00,,,0.00,,2013-02-21 11:21:00,
2013-02-21 06:31:00,23.0,14.0,29.98,WSW,248,2.0,5.0,68,0.00,,,0.00,,2013-02-21 11:31:00,
2013-02-21 06:41:00,23.0,14.0,29.98,WSW,248,2.0,5.0,68,0.00,,,0.00,,2013-02-21 11:41:00,
2013-02-21 06:52:00,23.0,14.0,29.99,WSW,248,2.0,5.0,69,0.00,,,0.00,,2013-02-21 11:52:00,
2013-02-21 07:01:00,23.0,14.0,29.99,WSW,248,2.0,2.0,68,0.00,,,0.00,,2013-02-21 12:01:00,
2013-02-21 07:11:00,23.0,14.0,29.99,WSW,248,2.0,2.0,68,0.00,,,0.00,,2013-02-21 12:11:00,
2013-02-21 07:21:00,23.0,14.0,30.00,WSW,248,2.0,5.0,69,0.00,,,0.00,,2013-02-21 12:21:00,
2013-02-21 07:32:00,23.0,14.0,30.01,WSW,248,2.0,3.0,69,0.00,,,0.00,,2013-02-21 12:32:00,
2013-02-21 07:42:00,23.0,14.0,30.02,WSW,248,3.0,6.0,69,0.00,,,0.00,,2013-02-21 12:42:00,
2013-02-21 07:53:00,23.0,14.0,30.02,WSW,248,3.0,6.0,69,0.00,,,0.00,,2013-02-21 12:53:00,
2013-02-21 08:02:00,24.0,15.0,30.02,WSW,248,3.0,10.0,69,0.00,,,0.00,,2013-02-21 13:02:00,
2013-02-21 08:12:00,24.0,15.0,30.02,WSW,248,3.0,10.0,69,0.00,,,0.00,,2013-02-21 13:12:00,
2013-02-21 08:22:00,24.0,15.0,30.01,WSW,248,2.0,10.0,69,0.00,,,0.00,,2013-02-21 13:22:00,
2013-02-21 08:32:00,24.0,15.0,30.02,WSW,248,3.0,9.0,68,0.00,,,0.00,,2013-02-21 13:32:00,
2013-02-21 08:42:00,24.0,15.0,30.02,WSW,248,3.0,9.0,68,0.00,,,0.00,,2013-02-21 13:42:00,
2013-02-21 08:52:00,25.0,16.0,30.03,WSW,248,3.0,7.0,68,0.00,,,0.00,,2013-02-21 13:52:00,
2013-02-21 09:02:00,25.0,16.0,30.03,WSW,248,5.0,10.0,68,0.00,,,0.00,,2013-02-21 14:02:00,
2013-02-21 09:11:00,25.0,16.0,30.03,WSW,248,5.0,10.0,68,0.00,,,0.00,,2013-02-21 14:11:00,
2013-02-21 09:22:00,25.0,16.0,30.03,WSW,248,3.0,5.0,68,0.00,,,0.00,,2013-02-21 14:22:00,
2013-02-21 09:32:00,26.0,17.0,30.04,WSW,248,3.0,9.0,67,0.00,,,0.00,,2013-02-21 14:32:00,
2013-02-21 09:42:00,27.0,17.0,30.04,WSW,248,3.0,14.0,66,0.00,,,0.00,,2013-02-21 14:42:00,
2013-02-21 09:52:00,27.0,17.0,30.04,WSW,248,3.0,14.0,66,0.00,,,0.00,,2013-02-21 14:52:00,
2013-02-21 10:02:00,26.0,16.0,30.04,NW,315,3.0,6.0,65,0.00,,,0.00,,2013-02-21 15:02:00,
2013-02-21 10:12:00,26.0,16.0,30.04,NW,315,3.0,6.0,65,0.00,,,0.00,,2013-02-21 15:12:00,
2013-02-21 10:21:00,27.0,17.0,30.05,WNW,292,2.0,5.0,65,0.00,,,0.00,,2013-02-21 15:21:00,
2013-02-21 10:32:00,27.0,17.0,30.06,NW,315,2.0,7.0,65,0.00,,,0.00,,2013-02-21 15:32:00,
2013-02-21 10:42:00,27.0,17.0,30.06,NW,315,2.0,7.0,65,0.00,,,0.00,,2013-02-21 15:42:00,
2013-02-21 10:52:00,27.0,17.0,30.07,NNW,338,4.0,7.0,65,0.00,,,0.00,,2013-02-21 15:52:00,
2013-02-21 11:01:00,28.0,18.0,30.07,NW,315,3.0,7.0,65,0.00,,,0.00,,2013-02-21 16:01:00,
2013-02-21 11:12:00,28.0,18.0,30.07,NW,315,3.0,7.0,65,0.00,,,0.00,,2013-02-21 16:12:00,
2013-02-21 11:22:00,28.0,18.0,30.07,NW,315,3.0,7.0,65,0.00,,,0.00,,2013-02-21 16:22:00,
2013-02-21 11:32:00,30.0,18.0,30.14,West,270,6.0,9.0,61,0.00,,,0.00,,2013-02-21 16:32:00,
2013-02-21 11:42:00,31.0,18.0,30.13,NW,315,5.0,9.0,59,0.00,,,0.00,,2013-02-21 16:42:00,
2013-02-21 11:52:00,31.0,18.0,30.13,NW,315,5.0,9.0,59,0.00,,,0.00,,2013-02-21 16:52:00,
2013-02-21 12:02:00,32.0,19.0,30.13,WNW,292,3.0,6.0,58,0.00,,,0.00,,2013-02-21 17:02:00,
2013-02-21 12:11:00,32.0,19.0,30.12,NW,315,5.0,9.0,57,0.00,,,0.00,,2013-02-21 17:11:00,
2013-02-21 12:21:00,32.0,19.0,30.12,NW,315,5.0,9.0,57,0.00,,,0.00,,2013-02-21 17:21:00,
2013-02-21 12:32:00,33.0,19.0,30.11,NW,315,5.0,9.0,57,0.00,,,0.00,,2013-02-21 17:32:00,
2013-02-21 12:52:00,34.0,20.0,30.10,NW,315,5.0,7.0,55,0.06,,,0.06,,2013-02-21 17:52:00,
2013-02-21 13:22:00,34.0,20.0,30.10,WSW,248,3.0,7.0,55,0.06,,,0.06,,2013-02-21 18:22:00,
2013-02-21 13:32:00,33.0,19.0,30.07,NW,315,3.0,7.0,56,0.06,,,0.06,,2013-02-21 18:32:00,
2013-02-21 13:42:00,33.0,19.0,30.07,NW,315,3.0,7.0,56,0.06,,,0.06,,2013-02-21 18:42:00,
2013-02-21 13:52:00,33.0,19.0,30.05,WNW,292,3.0,6.0,57,0.00,,,0.06,,2013-02-21 18:52:00,
2013-02-21 14:01:00,33.0,19.0,30.05,WNW,292,5.0,7.0,57,0.00,,,0.06,,2013-02-21 19:01:00,
2013-02-21 14:12:00,33.0,19.0,30.05,WNW,292,5.0,7.0,57,0.00,,,0.06,,2013-02-21 19:12:00,
2013-02-21 14:21:00,36.0,21.0,30.09,NW,315,3.0,6.0,53,0.00,,,0.06,,2013-02-21 19:21:00,
2013-02-21 14:32:00,37.0,21.0,30.13,NW,315,3.0,5.0,53,0.00,,,0.06,,2013-02-21 19:32:00,
2013-02-21 14:52:00,38.0,22.0,30.13,NNW,338,5.0,7.0,51,0.00,,,0.06,,2013-02-21 19:52:00,
2013-02-21 15:01:00,38.0,22.0,30.13,NW,315,3.0,6.0,52,0.00,,,0.06,,2013-02-21 20:01:00,
2013-02-21 15:11:00,40.0,23.0,30.14,NNW,338,2.0,5.0,51,0.00,,,0.06,,2013-02-21 20:11:00,
2013-02-21 15:21:00,40.0,23.0,30.14,NNW,338,2.0,5.0,51,0.00,,,0.06,,2013-02-21 20:21:00,
2013-02-21 15:32:00,40.0,23.0,30.14,WNW,292,2.0,5.0,50,0.00,,,0.06,,2013-02-21 20:32:00,
2013-02-21 15:53:00,40.0,22.0,30.14,NW,315,4.0,7.0,49,0.00,,,0.06,,2013-02-21 20:53:00,
2013-02-21 16:02:00,40.0,22.0,30.14,NW,315,3.0,7.0,49,0.00,,,0.06,,2013-02-21 21:02:00,
2013-02-21 16:12:00,41.0,23.0,30.14,NW,315,2.0,5.0,49,0.00,,,0.06,,2013-02-21 21:12:00,
2013-02-21 16:22:00,41.0,23.0,30.14,NW,315,2.0,5.0,49,0.00,,,0.06,,2013-02-21 21:22:00,
2013-02-21 16:42:00,41.0,23.0,30.16,NW,315,2.0,3.0,49,0.00,,,0.06,,2013-02-21 21:42:00,
2013-02-21 16:52:00,41.0,23.0,30.16,NW,315,2.0,3.0,49,0.00,,,0.06,,2013-02-21 21:52:00,
2013-02-21 17:01:00,40.0,22.0,30.16,NW,315,2.0,5.0,49,0.00,,,0.06,,2013-02-21 22:01:00,
2013-02-21 17:32:00,37.0,21.0,30.17,NNW,338,4.0,6.0,51,0.00,,,0.06,,2013-02-21 22:32:00,
2013-02-21 17:42:00,36.0,20.0,30.10,North,0,5.0,9.0,51,0.00,,,0.06,,2013-02-21 22:42:00,
2013-02-21 17:52:00,36.0,20.0,30.10,North,0,5.0,9.0,51,0.00,,,0.06,,2013-02-21 22:52:00,
2013-02-21 18:01:00,36.0,20.0,30.10,NNW,338,3.0,6.0,51,0.00,,,0.06,,2013-02-21 23:01:00,
2013-02-21 18:11:00,36.0,20.0,30.10,NNW,338,3.0,6.0,51,0.00,,,0.06,,2013-02-21 23:11:00,
2013-02-21 18:21:00,36.0,20.0,30.09,NNW,338,3.0,7.0,51,0.00,,,0.06,,2013-02-21 23:21:00,
2013-02-21 18:32:00,36.0,20.0,30.12,NW,315,3.0,6.0,51,0.00,,,0.06,,2013-02-21 23:32:00,
2013-02-21 18:42:00,36.0,20.0,30.12,NW,315,3.0,6.0,51,0.00,,,0.06,,2013-02-21 23:42:00,
2013-02-21 18:52:00,34.0,21.0,30.23,NNW,338,5.0,0.0,59,0.00,,,0.06,,2013-02-21 23:52:00,
2013-02-21 19:01:00,34.0,21.0,30.23,North,0,3.0,6.0,59,0.00,,,0.06,,2013-02-22 00:01:00,
2013-02-21 19:11:00,34.0,21.0,30.23,North,0,3.0,6.0,59,0.00,,,0.06,,2013-02-22 00:11:00,
2013-02-21 19:22:00,33.0,21.0,30.27,NNW,338,2.0,3.0,60,0.00,,,0.06,,2013-02-22 00:22:00,
2013-02-21 19:32:00,33.0,21.0,30.27,NNW,338,2.0,3.0,60,0.00,,,0.06,,2013-02-22 00:32:00,
2013-02-21 19:42:00,33.0,21.0,30.27,NNW,338,2.0,3.0,60,0.00,,,0.06,,2013-02-22 00:42:00,
2013-02-21 19:52:00,33.0,21.0,30.27,NNW,338,2.0,3.0,60,0.00,,,0.06,,2013-02-22 00:52:00,
2013-02-21 20:01:00,32.0,21.0,30.31,NNW,338,2.0,5.0,63,0.00,,,0.06,,2013-02-22 01:01:00,
2013-02-21 20:11:00,32.0,21.0,30.31,NNW,338,2.0,5.0,63,0.00,,,0.06,,2013-02-22 01:11:00,
2013-02-21 20:22:00,32.0,21.0,30.31,NNE,22,3.0,5.0,63,0.00,,,0.06,,2013-02-22 01:22:00,
2013-02-21 20:32:00,31.0,20.0,30.32,NNE,22,3.0,5.0,64,0.00,,,0.06,,2013-02-22 01:32:00,
2013-02-21 20:42:00,31.0,20.0,30.32,NNE,22,3.0,5.0,64,0.00,,,0.06,,2013-02-22 01:42:00,
2013-02-21 20:52:00,31.0,21.0,30.32,NNE,22,3.0,5.0,65,0.00,,,0.06,,2013-02-22 01:52:00,
2013-02-21 21:02:00,31.0,21.0,30.32,NNE,22,3.0,5.0,65,0.00,,,0.06,,2013-02-22 02:02:00,
2013-02-21 21:11:00,31.0,21.0,30.32,NNE,22,3.0,5.0,65,0.00,,,0.06,,2013-02-22 02:11:00,
2013-02-21 21:21:00,28.0,18.0,30.23,NE,45,5.0,7.0,65,0.00,,,0.06,,2013-02-22 02:21:00,
2013-02-21 21:32:00,30.0,20.0,30.32,NE,45,5.0,8.0,66,0.00,,,0.06,,2013-02-22 02:32:00,
2013-02-21 21:42:00,27.0,17.0,30.25,NE,45,5.0,10.0,66,0.00,,,0.06,,2013-02-22 02:42:00,
2013-02-21 21:52:00,27.0,17.0,30.25,NE,45,5.0,10.0,66,0.00,,,0.06,,2013-02-22 02:52:00,
2013-02-21 22:02:00,29.0,19.0,30.34,NNW,338,3.0,5.0,66,0.00,,,0.06,,2013-02-22 03:02:00,
2013-02-21 22:11:00,26.0,17.0,30.24,NNW,338,3.0,5.0,67,0.00,,,0.06,,2013-02-22 03:11:00,
2013-02-21 22:21:00,26.0,17.0,30.24,NNW,338,3.0,5.0,67,0.00,,,0.06,,2013-02-22 03:21:00,
2013-02-21 22:32:00,28.0,18.0,30.34,NNW,338,2.0,2.0,67,0.00,,,0.06,,2013-02-22 03:32:00,
2013-02-21 22:42:00,28.0,18.0,30.34,NNW,338,2.0,2.0,67,0.00,,,0.06,,2013-02-22 03:42:00,
2013-02-21 22:52:00,28.0,18.0,30.34,NNE,22,1.0,2.0,67,0.00,,,0.06,,2013-02-22 03:52:00,
2013-02-21 23:02:00,28.0,18.0,30.34,NNE,22,1.0,2.0,67,0.00,,,0.06,,2013-02-22 04:02:00,
2013-02-21 23:11:00,27.0,18.0,30.33,NNE,22,2.0,3.0,68,0.00,,,0.06,,2013-02-22 04:11:00,
2013-02-21 23:21:00,27.0,18.0,30.33,NNE,22,2.0,3.0,68,0.00,,,0.06,,2013-02-22 04:21:00,
2013-02-21 23:32:00,27.0,18.0,30.33,NNE,22,2.0,3.0,68,0.00,,,0.06,,2013-02-22 04:32:00,
2013-02-21 23:42:00,27.0,18.0,30.33,NNE,22,2.0,3.0,68,0.00,,,0.06,,2013-02-22 04:42:00,
2013-02-21 23:52:00,27.0,19.0,30.34,NNW,338,2.0,2.0,70,0.00,,,0.06,,2013-02-22 04:52:00,